Location: Fazenda Monte Alegre
(4.8500°S, 38.0333°W)
Time: 17:30:19
(UTC+00:00)

YAOGAN 1 - Pass Details

Date: 24 September 2020
Orbit: 618 x 620 km, 97.9° (Epoch: 24 October)

Event Time Altitude Azimuth Distance (km) Brightness Sun altitude
Rises 21:28:48 0° 162° (SSE) 2,899 5.8 -16.1°
Reaches altitude 10° 21:31:01 10° 157° (SSE) 1,990 5.0 -16.6°
Maximum altitude 21:35:17 57° 79° (ENE) 731 2.5 -17.7°
Drops below altitude 10° 21:39:30 10° 360° (N) 1,977 5.1 -18.8°
Sets 21:41:42 0° 356° (N) 2,879 6.0 -19.3°
